Location: Newark
(48.1500°N, 2.9667°W)
Time: 12:36:57
(UTC+00:00)

N. Korean satellite - Visible Passes

Search period start: 16 December 2019 00:00
Search period end: 26 December 2019 00:00
Orbit: 455 x 507 km, 97.2° (Epoch: 15 December)

Date Brightness Start Highest point End Pass type
(mag) Time Alt. Az. Time Alt. Az. Time Alt. Az.
16 Dec 8.4 05:36:21 10° NNE 05:39:30 31° E 05:42:35 10° SSE visible
16 Dec 7.8 07:10:07 10° NNW 07:12:43 20° WNW 07:15:17 10° WSW visible
16 Dec 8.7 17:48:15 10° SSW 17:51:32 30° W 17:54:48 10° NNW visible
17 Dec 9.6 05:11:37 10° NE 05:13:52 16° E 05:16:05 10° SE visible
17 Dec 7.0 06:44:11 10° N 06:47:26 36° WNW 06:50:37 10° SW visible
17 Dec 7.2 17:22:23 10° S 17:26:00 60° W 17:29:38 10° NNW visible
18 Dec 6.3 06:18:34 10° N 06:22:04 76° WNW 06:25:29 10° SSW visible
18 Dec 6.6 16:56:56 10° SSE 17:00:34 67° ENE 17:04:11 10° N visible
18 Dec 10.2 18:33:37 10° W 18:34:23 10° W 18:35:07 10° WNW visible
19 Dec 7.4 05:53:11 10° NNE 05:56:35 50° E 05:59:56 10° S visible
19 Dec 9.5 18:05:57 10° SW 18:08:41 20° W 18:11:25 10° NW visible
20 Dec 8.8 05:28:06 10° NE 05:31:02 25° E 05:33:54 10° SSE visible
20 Dec 7.6 07:01:31 10° NNW 07:04:21 24° WNW 07:07:09 10° WSW visible
20 Dec 8.3 17:39:41 10° SSW 17:43:06 37° W 17:46:30 10° NNW visible
21 Dec 9.8 05:03:40 10° ENE 05:05:22 13° E 05:07:02 10° ESE visible
21 Dec 6.7 06:35:41 10° N 06:39:02 45° WNW 06:42:19 10° SW visible
21 Dec 6.8 17:13:57 10° S 17:17:36 76° WSW 17:21:13 10° NNW visible
22 Dec 6.4 06:10:09 10° NNE 06:13:38 84° ESE 06:17:03 10° SSW visible
22 Dec 10.0 18:24:11 10° WSW 18:25:53 13° W 18:27:34 10° WNW visible
23 Dec 7.9 05:44:51 10° NNE 05:48:07 39° E 05:51:21 10° S visible
23 Dec 8.1 07:19:04 10° NNW 07:21:14 16° WNW 07:23:23 10° WSW visible
23 Dec 9.2 17:57:15 10° SSW 18:00:13 24° W 18:03:11 10° NW visible
24 Dec 9.2 05:19:54 10° NE 05:22:31 20° E 05:25:07 10° SE visible
24 Dec 7.3 06:52:56 10° N 06:55:58 29° WNW 06:58:58 10° SW visible
24 Dec 7.8 17:31:10 10° S 17:34:40 46° W 17:38:08 10° NNW visible
25 Dec 10.1 04:56:12 10° ENE 04:56:50 10° E 04:57:27 10° E visible
25 Dec 6.4 06:27:13 10° N 06:30:36 58° WNW 06:33:58 10° SSW visible
25 Dec 6.5 17:05:34 10° SSE 17:09:11 86° ENE 17:12:45 10° NNW visible
